Regional Weather Roundup
Issued by NWS State College, PA

Home | Current Version | Previous Version | Text Only | Print | Product List | Glossary Off
Versions: 1 2 3 4 5 6 7 8 9 10 11 12 13 14 15 16 17 18 19 20 21 22 23 24 25 26 27 28 29 30 31 32 33 34 35 36 37 38 39 40 41 42 43 44 45 46 47 48 49 50

000
ASUS41 KCTP 082010
RWRCTP

REGIONAL WEATHER ROUNDUP
NATIONAL WEATHER SERVICE STATE COLLEGE PA
300 PM EST THU DEC 08 2016

Note: "fair" indicates few or no clouds below 12,000 feet with no
significant weather and/or obstructions to visibility.

* = STATION THAT DOES NOT REPORT PRECIPITATION /E.G. RAIN...SNOW...ETC/
    THUNDER OR FOG.

PAZ002>004-007>009-013>016-020>023-029>032-082100-
WESTERN PENNSYLVANIA

CITY           SKY/WX    TMP DP  RH WIND       PRES   REMARKS
ERIE           SNOW      27  23  85 SW18G25   30.02R VSB 1/2 WCI  14
MEADVILLE      CLOUDY    25  14  63 W20G31    30.02R WCI  11
FRANKLIN*        N/A     25  10  54 W18G31    30.05R WCI  11
NEW CASTLE     NOT AVBL
BEAVER COUNTY  FLURRIES  25  18  74 W8G17     30.11R
BUTLER*        CLOUDY    25  14  63 W12G23    30.12S WCI  14
PITTSBURGH INT FLURRIES  28  17  63 W15G23    30.11R
PITTSBURGH     CLOUDY    27  15  61 W13G18    30.10R
INDIANA*       CLOUDY    27  19  74 W13G22    30.09R
LATROBE        CLOUDY    28  16  59 W17G29    30.10R
WASHINGTON CO* CLOUDY    27  12  54 W10G23    30.14R
$$

PAZ004>006-010>012-017>019-024>028-033>037-041-042-045-046-049>053-082100-
CENTRAL PENNSYLVANIA

CITY           SKY/WX    TMP DP  RH WIND       PRES   REMARKS
BRADFORD       CLOUDY    25  17  72 W14       29.92R WCI  13
DUBOIS         CLOUDY    26  14  60 W21       29.99R WCI  12
CLEARFIELD     CLOUDY    29  15  56 SW15G24   29.99R
JOHNSTOWN      CLOUDY    26  15  63 W17G25    29.98R WCI  13
ALTOONA        PTSUNNY   33  18  53 NW16G28   30.00R
STATE COLLEGE  CLOUDY    32  18  55 W15       30.00R
WILLIAMSPORT   MOSUNNY   37  17  44 W16G25    29.95R
SELINSGROVE    MOSUNNY   38  19  46 W10G24    29.98R
FT INDIANTOWN  SUNNY     41  17  37 NW16G22   29.96R
CAPITAL CITY   NOT AVBL
HARRISBURG     NOT AVBL
YORK           MOSUNNY   43  20  39 NW16G25   29.98R
$$

PAZ038>040-043-044-047-048-054-055-060>062-067>071-082100-
EASTERN PENNSYLVANIA

CITY           SKY/WX    TMP DP  RH WIND       PRES   REMARKS
SCRANTON       PTSUNNY   38  20  48 W10       29.88S
MOUNT POCONO   SUNNY     32  17  54 W18G30    29.83R
ALLENTOWN      SUNNY     41  20  43 W12G20    29.92R
QUAKERTOWN*    CLOUDY    39  18  41 W7        29.93R
READING        CLOUDY    41  19  41 W15       29.94R
LANCASTER      PTSUNNY   42  21  43 NW17      29.95R
COATESVILLE    CLOUDY    41  21  45 NW13G20   29.95R
POTTSTOWN      CLOUDY    40  17  39 W10       29.95R
BLUE BELL      CLOUDY    41  19  42 W7        29.92R
DOYLESTOWN     CLOUDY    42  19  39 NW14      29.92R
WILLOW GROVE   NOT AVBL
NORTH PHILA    CLOUDY    45  20  36 W13G21    29.94S
PHILADELPHIA   CLOUDY    46  17  31 W24       29.95R
$$




USA.gov is the U.S. government's official web portal to all federal, state and local government web resources and services.